Погода в Гаммарте

Тунис     36°54′26″N   10°19′01″E
темп.,
°C
ветер,
м/с
пор.,
м/с
влажн.,
%
обл.,
%
осадки,
мм/ч
давл.,
гПа
погр.,
м
15 августа, пн
пн1501:00+28юв44611 0.0 100896
04:00+28ююв335679 0.0 100761
07:00+29ю345175 0.0 1008105
10:00+34ююз4534100 0.0 1008327
13:00+35ссв443493 0.0 1007382
16:00+34с78425 0.0 1008694
19:00+30сз5762100 0.0 1010311
22:00+30сз71159100 0.0 1012324
16 августа, вт
вт1601:00+31ююз58456 0.0 1009135
04:00+30юз594754 0.0 1010227
07:00+29юз125164 0.0 1010106
10:00+33ююв124092 0.0 1011478
13:00+34ссв564334 0.0 1012942
16:00+33ссв774996 0.0 1011525
19:00+30всв33545 0.0 101296
22:00+30юв125558 0.0 101339
17 августа, ср
ср1701:00+30ю45536 0.0 101186
04:00+30ююз33495 0.0 101130
07:00+31ю510484 0.0 1011195
10:00+36ююв8123269 0.0 1011639
13:00+39ю7102650 0.0 10091280
16:00+40ююв8112784 0.0 10072228
19:00+33вюв694782 0.0 1009217
22:00+31вюв7126030 0.0 1009191
18 августа, чт
чт1801:00+32ююв612505 0.0 1009273
04:00+32ююз384673 0.0 1008174
07:00+31сз124611 0.0 100997
10:00+37ю593194 0.0 1009727
13:00+34ссз1085125 0.0 1009445
16:00+31с666259 0.0 1009552
19:00+30сз796553 0.0 1010582
22:00+28сз47758 0.0 1012431
19 августа, пт
пт1901:00+28зсз6117294 0.0 1012648
04:00+27зсз7107699 0.0 1013840
07:00+27сз7107113 0.0 1014932
10:00+30сз910515 0.0 10151103
13:00+30ссз910482 0.0 10141232
16:00+30ссз89480 0.0 10151221
19:00+27сз810620 0.0 1015996
22:00+26сз811640 0.0 1016949